Time,TemperatureF,DewpointF,PressureIn,WindDirection,WindDirectionDegrees,WindSpeedMPH,WindSpeedGustMPH,Humidity,HourlyPrecipIn,Conditions,Clouds,dailyrainin,SoftwareType,DateUTC
2014-01-11 00:00:00,32.0,30.5,29.01,SE,135,1.6,2.2,94,0.00,,,0.00,pywws,2014-01-11 06:00:00,
2014-01-11 00:10:00,31.8,30.6,29.01,SE,135,2.2,6.0,95,0.00,,,0.00,pywws,2014-01-11 06:10:00,
2014-01-11 00:20:00,31.8,30.3,29.00,SE,135,1.6,2.2,94,0.00,,,0.00,pywws,2014-01-11 06:20:00,
2014-01-11 00:30:00,31.6,30.1,29.00,SE,135,0.7,2.2,94,0.00,,,0.00,pywws,2014-01-11 06:30:00,
2014-01-11 00:40:00,31.6,30.1,29.00,SE,135,3.1,5.4,94,0.00,,,0.00,pywws,2014-01-11 06:40:00,
2014-01-11 00:50:00,31.6,30.1,29.01,SE,135,3.1,5.4,94,0.00,,,0.00,pywws,2014-01-11 06:50:00,
2014-01-11 01:00:00,31.3,29.8,29.00,SE,135,2.2,4.5,94,0.00,,,0.00,pywws,2014-01-11 07:00:00,
2014-01-11 01:10:00,31.1,29.6,29.01,SE,135,1.6,2.2,94,0.00,,,0.00,pywws,2014-01-11 07:10:00,
2014-01-11 01:20:00,30.9,29.4,29.02,SE,135,1.6,3.8,94,0.00,,,0.00,pywws,2014-01-11 07:20:00,
2014-01-11 01:30:00,31.1,29.3,29.01,SE,135,2.2,3.1,93,0.00,,,0.00,pywws,2014-01-11 07:30:00,
2014-01-11 01:40:00,31.1,29.3,29.01,SE,135,0.7,2.2,93,0.00,,,0.00,pywws,2014-01-11 07:40:00,
2014-01-11 01:50:00,31.3,29.5,29.01,SE,135,0.7,2.2,93,0.00,,,0.00,pywws,2014-01-11 07:50:00,
2014-01-11 02:00:00,31.3,29.5,29.01,SE,135,1.6,3.1,93,0.00,,,0.00,pywws,2014-01-11 08:00:00,
2014-01-11 02:10:00,31.3,29.2,29.01,SE,135,2.2,3.8,92,0.00,,,0.00,pywws,2014-01-11 08:10:00,
2014-01-11 02:20:00,31.3,29.2,29.01,SE,135,1.6,3.1,92,0.00,,,0.00,pywws,2014-01-11 08:20:00,
2014-01-11 02:30:00,31.3,29.2,29.02,SE,135,2.2,3.1,92,0.00,,,0.00,pywws,2014-01-11 08:30:00,
2014-01-11 02:40:00,31.5,29.4,29.02,SE,135,3.1,4.5,92,0.00,,,0.00,pywws,2014-01-11 08:40:00,
2014-01-11 02:50:00,31.5,29.4,29.02,SE,135,3.1,3.8,92,0.00,,,0.00,pywws,2014-01-11 08:50:00,
2014-01-11 03:00:00,31.5,29.4,29.02,SE,135,2.2,4.5,92,0.00,,,0.00,pywws,2014-01-11 09:00:00,
2014-01-11 03:10:00,31.3,29.2,29.02,SE,135,1.6,3.1,92,0.00,,,0.00,pywws,2014-01-11 09:10:00,
2014-01-11 03:20:00,31.3,29.2,29.02,SE,135,2.2,4.5,92,0.00,,,0.00,pywws,2014-01-11 09:20:00,
2014-01-11 03:30:00,31.1,29.1,29.02,SE,135,2.2,3.8,92,0.00,,,0.00,pywws,2014-01-11 09:30:00,
2014-01-11 03:40:00,31.1,29.1,29.02,SE,135,1.6,3.1,92,0.00,,,0.00,pywws,2014-01-11 09:40:00,
2014-01-11 03:50:00,31.1,29.1,29.02,SE,135,1.6,2.2,92,0.00,,,0.00,pywws,2014-01-11 09:50:00,
2014-01-11 04:00:00,31.1,29.1,29.02,SE,135,2.2,3.8,92,0.00,,,0.00,pywws,2014-01-11 10:00:00,
2014-01-11 04:10:00,31.1,29.1,29.02,SE,135,3.1,5.4,92,0.00,,,0.00,pywws,2014-01-11 10:10:00,
2014-01-11 04:20:00,31.1,29.1,29.02,SE,135,3.1,4.5,92,0.00,,,0.00,pywws,2014-01-11 10:20:00,
2014-01-11 04:30:00,31.1,29.1,29.03,SE,135,2.2,3.1,92,0.00,,,0.00,pywws,2014-01-11 10:30:00,
2014-01-11 04:40:00,30.9,28.9,29.02,SE,135,2.2,3.8,92,0.00,,,0.00,pywws,2014-01-11 10:40:00,
2014-01-11 04:50:00,30.7,28.7,29.03,SE,135,3.1,4.5,92,0.00,,,0.00,pywws,2014-01-11 10:50:00,
2014-01-11 05:00:00,30.7,28.4,29.04,SE,135,3.1,5.4,91,0.00,,,0.00,pywws,2014-01-11 11:00:00,
2014-01-11 05:10:00,30.6,28.3,29.04,SE,135,2.2,3.8,91,0.00,,,0.00,pywws,2014-01-11 11:10:00,
2014-01-11 05:20:00,30.4,28.1,29.03,SE,135,3.8,6.0,91,0.00,,,0.00,pywws,2014-01-11 11:20:00,
2014-01-11 05:30:00,30.4,28.1,29.04,SE,135,2.2,3.8,91,0.00,,,0.00,pywws,2014-01-11 11:30:00,
2014-01-11 05:40:00,30.4,28.3,29.05,SE,135,2.2,3.1,92,0.00,,,0.00,pywws,2014-01-11 11:40:00,
2014-01-11 05:50:00,30.4,28.3,29.04,SE,135,3.1,5.4,92,0.00,,,0.00,pywws,2014-01-11 11:50:00,
2014-01-11 06:00:00,30.2,28.2,29.04,SE,135,2.2,3.8,92,0.00,,,0.00,pywws,2014-01-11 12:00:00,
2014-01-11 06:10:00,30.2,28.2,29.04,SE,135,1.6,3.1,92,0.00,,,0.00,pywws,2014-01-11 12:10:00,
2014-01-11 06:20:00,30.0,28.0,29.04,SE,135,3.1,6.0,92,0.00,,,0.00,pywws,2014-01-11 12:20:00,
2014-01-11 06:30:00,29.8,27.8,29.04,SE,135,1.6,3.1,92,0.00,,,0.00,pywws,2014-01-11 12:30:00,
2014-01-11 06:40:00,29.7,27.6,29.05,SE,135,1.6,3.1,92,0.00,,,0.00,pywws,2014-01-11 12:40:00,
2014-01-11 06:50:00,29.3,27.3,29.05,SE,135,3.1,3.8,92,0.00,,,0.00,pywws,2014-01-11 12:50:00,
2014-01-11 07:00:00,28.8,26.5,29.05,SE,135,0.7,1.6,91,0.00,,,0.00,pywws,2014-01-11 13:00:00,
2014-01-11 07:10:00,28.0,24.7,29.06,SE,135,0.7,1.6,87,0.00,,,0.00,pywws,2014-01-11 13:10:00,
2014-01-11 07:20:00,27.5,24.1,29.06,SE,135,2.2,3.8,87,0.00,,,0.00,pywws,2014-01-11 13:20:00,
2014-01-11 07:30:00,27.0,23.3,29.07,SE,135,3.8,4.5,86,0.00,,,0.00,pywws,2014-01-11 13:30:00,
2014-01-11 07:40:00,26.1,22.7,29.07,SE,135,2.2,3.8,87,0.00,,,0.00,pywws,2014-01-11 13:40:00,
2014-01-11 07:50:00,25.0,21.4,29.08,SE,135,2.2,3.8,86,0.00,,,0.00,pywws,2014-01-11 13:50:00,
2014-01-11 08:00:00,24.4,20.9,29.07,SE,135,3.8,6.0,86,0.00,,,0.00,pywws,2014-01-11 14:00:00,
2014-01-11 08:10:00,24.4,20.9,29.07,SE,135,2.2,3.1,86,0.00,,,0.00,pywws,2014-01-11 14:10:00,
2014-01-11 08:20:00,24.4,20.6,29.08,SE,135,2.2,3.1,85,0.00,,,0.00,pywws,2014-01-11 14:20:00,
2014-01-11 08:30:00,24.3,20.1,29.09,SE,135,3.8,5.4,84,0.00,,,0.00,pywws,2014-01-11 14:30:00,
2014-01-11 08:40:00,24.4,20.0,29.09,SE,135,4.5,6.0,83,0.00,,,0.00,pywws,2014-01-11 14:40:00,
2014-01-11 08:50:00,26.4,21.1,29.10,SE,135,2.2,3.8,80,0.00,,,0.00,pywws,2014-01-11 14:50:00,
2014-01-11 09:00:00,25.5,19.0,29.11,SE,135,1.6,3.1,76,0.00,,,0.00,pywws,2014-01-11 15:00:00,
2014-01-11 09:10:00,25.2,18.7,29.12,SE,135,4.5,6.9,76,0.00,,,0.00,pywws,2014-01-11 15:10:00,
2014-01-11 09:20:00,25.2,18.4,29.12,SE,135,3.1,3.8,75,0.00,,,0.00,pywws,2014-01-11 15:20:00,
2014-01-11 09:30:00,27.0,19.8,29.12,SE,135,3.1,4.5,74,0.00,,,0.00,pywws,2014-01-11 15:30:00,
2014-01-11 09:40:00,27.0,19.2,29.12,SE,135,3.8,5.4,72,0.00,,,0.00,pywws,2014-01-11 15:40:00,
2014-01-11 09:50:00,29.1,21.9,29.12,SE,135,3.1,4.5,74,0.00,,,0.00,pywws,2014-01-11 15:50:00,
2014-01-11 10:00:00,29.7,21.1,29.13,SE,135,4.5,7.6,70,0.00,,,0.00,pywws,2014-01-11 16:00:00,
2014-01-11 10:10:00,27.9,19.4,29.13,SE,135,3.8,6.0,70,0.00,,,0.00,pywws,2014-01-11 16:10:00,
2014-01-11 10:20:00,28.0,20.8,29.13,SE,135,3.8,9.2,74,0.00,,,0.00,pywws,2014-01-11 16:20:00,
2014-01-11 10:30:00,28.6,22.9,29.13,SE,135,3.8,6.0,79,0.00,,,0.00,pywws,2014-01-11 16:30:00,
2014-01-11 10:40:00,29.8,24.4,29.13,SE,135,3.8,6.0,80,0.00,,,0.00,pywws,2014-01-11 16:40:00,
2014-01-11 10:50:00,30.4,24.0,29.13,NW,315,3.1,6.0,77,0.00,,,0.00,pywws,2014-01-11 16:50:00,
2014-01-11 11:00:00,30.6,23.9,29.13,NW,315,3.1,4.5,76,0.00,,,0.00,pywws,2014-01-11 17:00:00,
2014-01-11 11:10:00,30.2,23.9,29.13,North,0,3.1,5.4,77,0.00,,,0.00,pywws,2014-01-11 17:10:00,
2014-01-11 11:20:00,30.6,24.2,29.13,NW,315,3.8,6.9,77,0.00,,,0.00,pywws,2014-01-11 17:20:00,
2014-01-11 11:30:00,30.9,24.6,29.13,NW,315,2.2,3.1,77,0.00,,,0.00,pywws,2014-01-11 17:30:00,
2014-01-11 11:52:00,30.9,24.6,29.13,NW,315,4.5,6.9,77,0.00,,,0.00,pywws,2014-01-11 17:52:00,
2014-01-11 12:02:00,30.9,24.3,29.13,NW,315,3.1,6.9,76,0.00,,,0.00,pywws,2014-01-11 18:02:00,
2014-01-11 12:10:00,30.6,24.2,29.13,North,0,4.5,6.9,77,0.00,,,0.00,pywws,2014-01-11 18:10:00,
2014-01-11 12:12:00,30.6,24.2,29.13,West,270,5.4,7.6,77,0.00,,,0.00,pywws,2014-01-11 18:12:00,
2014-01-11 12:20:00,29.8,23.5,29.13,NW,315,4.5,5.4,77,0.00,,,0.00,pywws,2014-01-11 18:20:00,
2014-01-11 12:30:00,29.1,23.1,29.14,West,270,6.0,7.6,78,0.00,,,0.00,pywws,2014-01-11 18:30:00,
2014-01-11 12:40:00,28.8,23.1,29.15,NW,315,6.0,9.8,79,0.00,,,0.00,pywws,2014-01-11 18:40:00,
2014-01-11 12:50:00,28.4,23.0,29.14,NW,315,5.4,7.6,80,0.00,,,0.00,pywws,2014-01-11 18:50:00,
2014-01-11 13:00:00,28.6,23.2,29.14,NW,315,3.8,6.9,80,0.00,,,0.00,pywws,2014-01-11 19:00:00,
2014-01-11 13:10:00,28.6,23.2,29.14,NW,315,3.1,5.4,80,0.00,,,0.00,pywws,2014-01-11 19:10:00,
2014-01-11 13:20:00,28.6,23.2,29.15,West,270,5.4,7.6,80,0.00,,,0.00,pywws,2014-01-11 19:20:00,
2014-01-11 13:30:00,28.8,23.4,29.15,NW,315,4.5,6.0,80,0.00,,,0.00,pywws,2014-01-11 19:30:00,
2014-01-11 13:40:00,28.8,23.4,29.15,NW,315,2.2,4.5,80,0.00,,,0.00,pywws,2014-01-11 19:40:00,
2014-01-11 13:50:00,28.9,23.9,29.15,West,270,6.9,8.3,81,0.00,,,0.00,pywws,2014-01-11 19:50:00,
2014-01-11 14:00:00,29.1,24.3,29.16,NW,315,3.8,6.0,82,0.00,,,0.00,pywws,2014-01-11 20:00:00,
2014-01-11 14:10:00,29.1,24.3,29.16,NW,315,3.8,6.9,82,0.00,,,0.00,pywws,2014-01-11 20:10:00,
2014-01-11 14:20:00,29.1,24.6,29.17,NW,315,1.6,3.1,83,0.00,,,0.00,pywws,2014-01-11 20:20:00,
2014-01-11 14:42:00,29.1,24.9,29.18,North,0,3.1,6.9,84,0.00,,,0.00,pywws,2014-01-11 20:42:00,
2014-01-11 14:52:00,29.5,25.3,29.18,North,0,3.8,6.0,84,0.00,,,0.00,pywws,2014-01-11 20:52:00,
2014-01-11 15:00:00,29.7,24.9,29.18,North,0,3.8,5.4,82,0.00,,,0.00,pywws,2014-01-11 21:00:00,
2014-01-11 15:02:00,29.7,25.1,29.18,NW,315,3.8,6.9,83,0.00,,,0.00,pywws,2014-01-11 21:02:00,
2014-01-11 15:10:00,29.8,25.0,29.19,North,0,4.5,7.6,82,0.00,,,0.00,pywws,2014-01-11 21:10:00,
2014-01-11 15:20:00,29.8,24.7,29.19,North,0,5.4,6.0,81,0.00,,,0.00,pywws,2014-01-11 21:20:00,
2014-01-11 15:42:00,30.0,24.6,29.19,North,0,5.4,8.3,80,0.00,,,0.00,pywws,2014-01-11 21:42:00,
2014-01-11 15:50:00,30.2,24.5,29.20,NE,45,4.5,7.6,79,0.00,,,0.00,pywws,2014-01-11 21:50:00,
2014-01-11 15:52:00,30.0,24.6,29.20,NW,315,3.1,4.5,80,0.00,,,0.00,pywws,2014-01-11 21:52:00,
2014-01-11 16:00:00,30.2,24.8,29.21,NW,315,3.1,4.5,80,0.00,,,0.00,pywws,2014-01-11 22:00:00,
2014-01-11 16:10:00,30.2,24.8,29.21,NW,315,3.1,4.5,80,0.00,,,0.00,pywws,2014-01-11 22:10:00,
2014-01-11 16:20:00,30.2,25.1,29.22,North,0,3.1,3.8,81,0.00,,,0.00,pywws,2014-01-11 22:20:00,
2014-01-11 16:30:00,30.2,25.1,29.22,SW,225,2.2,4.5,81,0.00,,,0.00,pywws,2014-01-11 22:30:00,
2014-01-11 16:40:00,30.0,25.2,29.23,NW,315,2.2,3.1,82,0.00,,,0.00,pywws,2014-01-11 22:40:00,
2014-01-11 17:00:00,30.0,24.9,29.23,NW,315,3.1,4.5,81,0.00,,,0.00,pywws,2014-01-11 23:00:00,
2014-01-11 17:02:00,30.0,24.9,29.23,NW,315,3.8,4.5,81,0.00,,,0.00,pywws,2014-01-11 23:02:00,
2014-01-11 17:20:00,30.2,25.1,29.24,North,0,2.2,3.8,81,0.00,,,0.00,pywws,2014-01-11 23:20:00,
2014-01-11 17:22:00,30.0,25.2,29.24,NW,315,1.6,3.1,82,0.00,,,0.00,pywws,2014-01-11 23:22:00,
2014-01-11 17:30:00,30.2,25.4,29.25,NW,315,4.5,9.2,82,0.00,,,0.00,pywws,2014-01-11 23:30:00,
2014-01-11 17:52:00,30.2,25.1,29.25,West,270,3.1,6.9,81,0.00,,,0.00,pywws,2014-01-11 23:52:00,
2014-01-11 18:02:00,30.2,25.1,29.26,NW,315,3.1,3.8,81,0.00,,,0.00,pywws,2014-01-12 00:02:00,
2014-01-11 18:12:00,30.2,25.1,29.26,NW,315,3.8,5.4,81,0.00,,,0.00,pywws,2014-01-12 00:12:00,
2014-01-11 18:20:00,30.2,25.4,29.27,NW,315,3.8,6.0,82,0.00,,,0.00,pywws,2014-01-12 00:20:00,
2014-01-11 18:22:00,30.2,25.1,29.27,NW,315,1.6,2.2,81,0.00,,,0.00,pywws,2014-01-12 00:22:00,
2014-01-11 18:40:00,29.7,24.9,29.27,NW,315,1.6,2.2,82,0.00,,,0.00,pywws,2014-01-12 00:40:00,
2014-01-11 18:42:00,30.2,25.1,29.27,NW,315,3.8,6.0,81,0.00,,,0.00,pywws,2014-01-12 00:42:00,
2014-01-11 19:00:00,28.9,24.4,29.28,West,270,1.6,3.1,83,0.00,,,0.00,pywws,2014-01-12 01:00:00,
2014-01-11 19:02:00,29.3,24.8,29.28,West,270,3.1,5.4,83,0.00,,,0.00,pywws,2014-01-12 01:02:00,
2014-01-11 19:22:00,28.2,22.6,29.28,West,270,2.2,3.8,79,0.00,,,0.00,pywws,2014-01-12 01:22:00,
2014-01-11 19:30:00,28.2,23.2,29.28,West,270,1.6,2.2,81,0.00,,,0.00,pywws,2014-01-12 01:30:00,
2014-01-11 19:32:00,28.2,22.9,29.28,NW,315,1.6,3.1,80,0.00,,,0.00,pywws,2014-01-12 01:32:00,
2014-01-11 19:50:00,27.3,22.3,29.28,NW,315,1.6,3.1,81,0.00,,,0.00,pywws,2014-01-12 01:50:00,
2014-01-11 19:52:00,27.5,22.4,29.28,West,270,2.2,3.8,81,0.00,,,0.00,pywws,2014-01-12 01:52:00,
2014-01-11 20:00:00,27.3,22.3,29.28,NW,315,2.2,3.8,81,0.00,,,0.00,pywws,2014-01-12 02:00:00,
2014-01-11 20:22:00,27.9,23.1,29.28,West,270,1.6,3.1,82,0.00,,,0.00,pywws,2014-01-12 02:22:00,
2014-01-11 20:32:00,27.5,22.7,29.28,West,270,3.1,4.5,82,0.00,,,0.00,pywws,2014-01-12 02:32:00,
2014-01-11 20:42:00,27.1,22.4,29.28,West,270,1.6,3.1,82,0.00,,,0.00,pywws,2014-01-12 02:42:00,
2014-01-11 20:50:00,27.1,22.4,29.28,West,270,2.2,3.8,82,0.00,,,0.00,pywws,2014-01-12 02:50:00,
2014-01-11 20:52:00,26.8,22.0,29.28,West,270,2.2,3.8,82,0.00,,,0.00,pywws,2014-01-12 02:52:00,
2014-01-11 21:12:00,27.1,22.7,29.28,West,270,3.1,3.8,83,0.00,,,0.00,pywws,2014-01-12 03:12:00,
2014-01-11 21:20:00,27.0,22.5,29.29,WSW,248,3.8,6.9,83,0.00,,,0.00,pywws,2014-01-12 03:20:00,
2014-01-11 21:22:00,27.0,22.5,29.28,West,270,3.1,4.5,83,0.00,,,0.00,pywws,2014-01-12 03:22:00,
2014-01-11 21:30:00,27.1,22.7,29.29,SW,225,4.5,6.0,83,0.00,,,0.00,pywws,2014-01-12 03:30:00,
2014-01-11 21:52:00,27.1,23.0,29.29,NW,315,4.5,7.6,84,0.00,,,0.00,pywws,2014-01-12 03:52:00,
2014-01-11 22:00:00,27.0,22.8,29.29,West,270,4.5,6.0,84,0.00,,,0.00,pywws,2014-01-12 04:00:00,
2014-01-11 22:02:00,27.1,23.0,29.30,West,270,3.8,4.5,84,0.00,,,0.00,pywws,2014-01-12 04:02:00,
2014-01-11 22:10:00,27.0,23.1,29.29,SW,225,3.1,4.5,85,0.00,,,0.00,pywws,2014-01-12 04:10:00,
2014-01-11 22:32:00,26.8,22.9,29.30,SW,225,3.1,6.9,85,0.00,,,0.00,pywws,2014-01-12 04:32:00,
2014-01-11 22:40:00,26.6,22.7,29.30,West,270,3.1,6.0,85,0.00,,,0.00,pywws,2014-01-12 04:40:00,
2014-01-11 22:42:00,26.8,22.9,29.30,West,270,3.8,6.0,85,0.00,,,0.00,pywws,2014-01-12 04:42:00,
2014-01-11 22:50:00,26.2,22.6,29.31,SW,225,4.5,7.6,86,0.00,,,0.00,pywws,2014-01-12 04:50:00,
2014-01-11 23:00:00,25.9,22.3,29.30,West,270,3.1,4.5,86,0.00,,,0.00,pywws,2014-01-12 05:00:00,
2014-01-11 23:10:00,25.9,22.6,29.29,SW,225,3.1,5.4,87,0.00,,,0.00,pywws,2014-01-12 05:10:00,
2014-01-11 23:20:00,25.7,22.4,29.29,SW,225,3.8,5.4,87,0.00,,,0.00,pywws,2014-01-12 05:20:00,
2014-01-11 23:30:00,25.7,22.4,29.30,West,270,2.2,3.8,87,0.00,,,0.00,pywws,2014-01-12 05:30:00,
2014-01-11 23:40:00,25.5,22.2,29.29,SW,225,2.2,3.1,87,0.00,,,0.00,pywws,2014-01-12 05:40:00,
2014-01-11 23:50:00,25.5,22.2,29.28,SW,225,1.6,2.2,87,0.00,,,0.00,pywws,2014-01-12 05:50:00,